Location: Pasadena, ca
(34.1243°N, 118.1037°W)
Time: 14:29:24
(UTC-08:00)

Tiangong 1 - Pass Details

Date: 15 October 2017
Orbit: 275 x 302 km, 42.8° (Epoch: 14 December)

Event Time Altitude Azimuth Distance (km) Brightness Sun altitude
Rises 18:32:47 0° 305° (NW) 2,096 5.6 -3.9°
Reaches altitude 10° 18:35:02 10° 320° (NW) 1,247 4.1 -4.4°
Maximum altitude 18:37:23 24° 17° (NNE) 726 2.2 -4.8°
Drops below altitude 10° 18:39:42 10° 75° (ENE) 1,216 2.9 -5.3°
Enters shadow 18:40:16 - 81° (E) 1,418 3.2 -5.4°
